Weather History for Cartersville, GA

Change the Weather History Date:

Tuesday, December 6, 2011

  Actual Average Record
Temperature  
Mean Temperature 58 °F 44 °F  
Max Temperature 66 °F 56 °F 76 °F (2013)
Min Temperature 51 °F 33 °F 1 °F (2008)
Degree Days  
Heating Degree Days 6 21  
Month to date heating degree days 119  
Since 1 July heating degree days 728  
Growing Degree Days 8 (Base 50)    
Moisture  
Dew Point 59 °F    
Average Humidity 94    
Maximum Humidity 100    
Minimum Humidity 77    
Precipitation  
Precipitation 0.77 in 0.16 in 1.45 in (1983)
Month to date precipitation 1.01  
Snow  
Snow 0.00 in - - ()
Month to date snowfall  
Since 1 July snowfall  
Snow Depth -    
Sea Level Pressure  
Sea Level Pressure 30.01 in    
Wind  
Wind Speed 4 mph (SSE)    
Max Wind Speed 9 mph    
Max Gust Speed -    
Visibility 6 miles    
Events Rain    
T = Trace of Precipitation, MM = Missing Value Source: NWS Daily Summary

Daily Weather History Graph

Daily Weather History Graph

Search for Another Location

Airport:

Trip Planner

Search our weather history database for the weather conditions in past years. The results will help you decide how hot, cold, wet, or windy it might be!

Date:

Astronomy

Dec. 06, 2011 Rise Set
Actual Time 7:30 AM EST 5:29 PM EST
Civil Twilight 7:03 AM EST 5:57 PM EST
Nautical Twilight 6:32 AM EST 6:28 PM EST
Astronomical Twilight 6:01 AM EST 6:58 PM EST
Moon 2:51 PM EST (12/6) 3:54 AM EST (12/6)
Length of Visible Light 10h 53m
Length of Day
9h 58m
Waxing Gibbous, 86% of the Moon is Illuminated
Dec 6
Waxing Gibbous
Dec 10
Full
Dec 17
Last Quarter
Dec 24
New
Jan 1
First Quarter

Hourly Weather History & Observations

Time (EST) Temp. Dew Point Humidity Pressure Visibility Wind Dir Wind Speed Gust Speed Precip Events Conditions
12:53 AM 64.0 °F 57.0 °F 78% 30.03 in 10.0 mi Variable 5.8 mph - N/A   Overcast
1:53 AM 64.0 °F 57.9 °F 80% 30.02 in 10.0 mi SSE 9.2 mph - N/A   Overcast
2:13 AM 64.4 °F 57.2 °F 77% 30.04 in 10.0 mi SSE 6.9 mph - N/A   Overcast
3:51 AM 62.6 °F 59.0 °F 88% 30.05 in 10.0 mi SSE 9.2 mph - N/A   Overcast
3:53 AM 63.0 °F 59.0 °F 87% 30.02 in 10.0 mi SSE 6.9 mph - N/A   Overcast
4:07 AM 62.6 °F 59.0 °F 88% 30.04 in 10.0 mi SSE 8.1 mph - N/A   Overcast
4:53 AM 63.0 °F 60.1 °F 90% 29.99 in 10.0 mi SSE 6.9 mph - N/A   Overcast
5:53 AM 63.0 °F 60.1 °F 90% 30.00 in 9.0 mi SSE 4.6 mph - N/A   Overcast
6:53 AM 62.1 °F 60.1 °F 93% 30.00 in 8.0 mi SE 4.6 mph - N/A   Overcast
7:53 AM 63.0 °F 61.0 °F 93% 30.01 in 10.0 mi SSE 5.8 mph - N/A   Overcast
8:30 AM 62.6 °F 60.8 °F 94% 30.04 in 2.5 mi SSE 4.6 mph - N/A   Overcast
8:40 AM 62.6 °F 62.6 °F 100% 30.04 in 4.0 mi SSE 5.8 mph - N/A   Overcast
8:53 AM 63.0 °F 62.1 °F 97% 30.01 in 8.0 mi Variable 3.5 mph - N/A   Overcast
9:24 AM 64.4 °F 62.6 °F 94% 30.04 in 10.0 mi SSE 6.9 mph - N/A   Overcast
9:53 AM 66.0 °F 62.1 °F 87% 30.01 in 10.0 mi SSE 8.1 mph - N/A   Overcast
10:53 AM 66.9 °F 62.1 °F 84% 30.01 in 10.0 mi SSW 8.1 mph - N/A   Overcast
11:03 AM 66.2 °F 62.6 °F 88% 30.05 in 1.8 mi Calm Calm - 0.03 in Rain Rain
11:08 AM 64.4 °F 62.6 °F 94% 30.05 in 1.0 mi Variable 3.5 mph - 0.05 in Rain Heavy Rain
11:17 AM 62.6 °F 62.6 °F 100% 30.05 in 2.0 mi Calm Calm - 0.06 in Rain Light Rain
11:32 AM 62.6 °F 62.6 °F 100% 30.05 in 2.0 mi Calm Calm - 0.07 in Rain Light Rain
11:46 AM 62.6 °F 62.6 °F 100% 30.05 in 1.5 mi Calm Calm - 0.08 in Rain Light Rain
11:53 AM 63.0 °F 62.1 °F 97% 30.03 in 1.5 mi Calm Calm - 0.10 in Rain Light Rain
12:08 PM 62.6 °F 60.8 °F 94% 30.04 in 2.0 mi Calm Calm - 0.07 in Rain Light Rain
12:17 PM 62.6 °F 60.8 °F 94% 30.04 in 4.0 mi Calm Calm - 0.08 in Rain Light Rain
12:29 PM 62.6 °F 60.8 °F 94% 30.04 in 2.5 mi Calm Calm - 0.11 in Rain Rain
12:39 PM 62.6 °F 60.8 °F 94% 30.03 in 1.2 mi Calm Calm - 0.17 in Rain Heavy Rain
12:53 PM 62.1 °F 61.0 °F 96% 30.01 in 1.8 mi Calm Calm - 0.23 in Rain Rain
1:07 PM 60.8 °F 60.8 °F 100% 30.03 in 1.5 mi Calm Calm - 0.07 in Rain Rain
1:17 PM 60.8 °F 60.8 °F 100% 30.03 in 2.0 mi Variable 3.5 mph - 0.09 in Rain Rain
1:36 PM 62.6 °F 60.8 °F 94% 30.03 in 4.0 mi Calm Calm - 0.11 in Rain Light Rain
2:00 PM 62.6 °F 60.8 °F 94% 30.02 in 4.0 mi Calm Calm - 0.01 in Rain Light Rain
2:09 PM 62.6 °F 60.8 °F 94% 30.02 in 2.0 mi Calm Calm - 0.02 in Rain Light Rain
2:22 PM 62.6 °F 60.8 °F 94% 30.02 in 6.0 mi Calm Calm - 0.02 in   Overcast
2:31 PM 62.6 °F 60.8 °F 94% 30.02 in 10.0 mi Calm Calm - 0.02 in   Overcast
2:53 PM 62.1 °F 60.1 °F 93% 30.00 in 10.0 mi Calm Calm - 0.02 in   Overcast
3:01 PM 62.6 °F 60.8 °F 94% 30.02 in 10.0 mi Calm Calm - N/A   Overcast
3:11 PM 62.6 °F 60.8 °F 94% 30.02 in 10.0 mi Calm Calm - N/A   Overcast
3:29 PM 62.6 °F 60.8 °F 94% 30.02 in 10.0 mi Calm Calm - N/A   Overcast
3:53 PM 62.1 °F 60.1 °F 93% 29.99 in 10.0 mi Calm Calm - N/A   Overcast
4:53 PM 62.1 °F 60.1 °F 93% 29.99 in 10.0 mi Calm Calm - N/A   Overcast
5:28 PM 62.6 °F 60.8 °F 94% 29.99 in 10.0 mi Calm Calm - N/A   Overcast
5:49 PM 60.8 °F 60.8 °F 100% 29.99 in 10.0 mi Calm Calm - N/A   Overcast
5:53 PM 60.1 °F 60.1 °F 100% 29.96 in 6.0 mi Calm Calm - N/A   Mostly Cloudy
6:06 PM 60.8 °F 60.8 °F 100% 29.98 in 2.5 mi Calm Calm - N/A   Overcast
6:19 PM 60.8 °F 60.8 °F 100% 29.99 in 9.0 mi Calm Calm - N/A   Mostly Cloudy
6:50 PM 60.8 °F 60.8 °F 100% 29.99 in 10.0 mi Calm Calm - N/A   Overcast
6:53 PM 60.1 °F 59.0 °F 96% 29.96 in 10.0 mi Calm Calm - N/A   Overcast
7:03 PM 59.0 °F 57.2 °F 94% 29.99 in 10.0 mi Calm Calm - N/A   Overcast
7:53 PM 57.9 °F 57.0 °F 97% 29.96 in 10.0 mi Calm Calm - N/A   Overcast
8:12 PM 57.2 °F 57.2 °F 100% 29.99 in 3.0 mi Calm Calm - 0.02 in Rain Light Rain
8:53 PM 55.9 °F 55.0 °F 97% 29.98 in 7.0 mi Calm Calm - 0.02 in   Overcast
9:08 PM 53.6 °F 53.6 °F 100% 30.01 in 2.5 mi Calm Calm - 0.05 in Rain Light Rain
9:16 PM 53.6 °F 53.6 °F 100% 30.01 in 4.0 mi Variable 3.5 mph - 0.06 in Rain Light Rain
9:35 PM 53.6 °F 53.6 °F 100% 30.02 in 2.0 mi Calm Calm - 0.14 in Rain Heavy Rain
9:53 PM 53.1 °F 52.0 °F 96% 29.99 in 2.0 mi Calm Calm - 0.21 in Rain Rain
10:02 PM 53.6 °F 51.8 °F 94% 30.00 in 4.0 mi Calm Calm - 0.02 in Rain Rain
10:29 PM 53.6 °F 51.8 °F 94% 29.99 in 3.0 mi Calm Calm - 0.09 in Rain Light Rain
10:53 PM 53.1 °F 52.0 °F 96% 29.97 in 5.0 mi Calm Calm - 0.12 in Rain Light Rain
10:57 PM 53.6 °F 51.8 °F 94% 29.99 in 5.0 mi Calm Calm - 0.00 in Rain Light Rain
11:22 PM 51.8 °F 51.8 °F 100% 29.99 in 2.5 mi Calm Calm - 0.03 in Rain Light Rain
11:40 PM 51.8 °F 51.8 °F 100% 29.98 in 4.0 mi Calm Calm - 0.06 in Rain Light Rain
11:53 PM 52.0 °F 52.0 °F 100% 29.96 in 3.0 mi Calm Calm - 0.07 in Rain Light Rain